Location: ??
(35.1714°N, 128.2806°E)
Time: 15:34:06
(UTC+00:00)

Cosmos 1400 Rocket - Pass Details

Date: 29 October 2020
Orbit: 521 x 568 km, 81.2° (Epoch: 30 November)

Event Time Altitude Azimuth Distance (km) Brightness Sun altitude
Rises 20:43:50 0° 342° (NNW) 2,681 6.1 -13.3°
Reaches altitude 10° 20:46:05 10° 334° (NNW) 1,779 5.1 -12.8°
Maximum altitude 20:49:43 38° 267° (W) 820 3.2 -12.1°
Drops below altitude 10° 20:53:17 10° 198° (SSW) 1,751 5.3 -11.4°
Sets 20:55:30 0° 190° (S) 2,632 6.3 -10.9°
